TINTIN B (43217 NORAD) Tracking and Keplerian Element Data

This shows tracking and keplerian element data for the satellite.

Feedback or suggestion? Click here.




ElementValue
Catalog43217
NameTINTIN B
Epoch Orbit5920
Epoch Day78.45295036
Epoch Year2019
RAAN87.8348
Inclination97.4618
Eccentricity0.0011904
Argument of Perigee2.2109
Mean Anonmoly357.9176
Mean Motion15.19896752
Decay Rate1.241E-05
L11 43217U 18020C 19078.45295036 .00001241 00000-0 60921-4 0 9997
L22 43217 97.4618 87.8348 0011904 2.2109 357.9176 15.19896752 59208

Live tracking and technical data element details for TINTIN B (NORAD 43217). TINTIN B can be tracked NOW for your location showing map with azimuth and elevation plus other details from your city location.

Track the satellite on the map from your city or location and see movement details for azimuth, elevation, latitude, longitude, range, height, and movement on the map or in text.







IsCatalogInMostPopularTable: catalog: 43217, numindb: 253
Update: records affected: 1



GetName: 43217 TINTIN B

Hit Count: updated at: Thu, 21 Mar 2019 01:09:54 GMT